Weather in Kharlu

Russia / Republic of Karelia     61°48′31″N   30°56′17″E
temp.,
°C
wind,
m/s
gust,
m/s
humid.,
%
clouds,
%
prec.,
mm/h
press.,
hPa
HPBL,
m
2 march, tue
tue200:00+1wnw5158343 0.0 1006751
03:00−1wnw4158422 0.0 1007670
06:00−2wnw414860 0.0 1006564
09:00−2nw513862 0.0 1007595
12:000nw6108456 0.0 1009941
15:00+1nw6137060 0.1 10121671
18:00−1nw4137863 0.1 1013719
21:00−2nw3128933 0.1 1015412
3 march, wed
wed300:00−2wnw412900 0.0 1014426
03:00−2wnw412880 0.0 1014471
06:00−3wnw4128914 0.0 1012484
09:00−3w4109222 0.0 1011417
12:00−1w5108786 0.0 1008590
15:000w5118493 0.0 1005942
18:000wnw61492100 0.6 10011196
21:00−3nw5147867 0.8 1002758
4 march, thu
thu400:00−5nw412850 0.0 1002486
03:00−7nw39900 0.0 1002298
06:00−9nw37955 0.0 1002187
09:00−8nnw379342 0.1 1003271
12:00−5nnw368798 0.1 1003499
15:00−4nnw368198 0.1 1004860
18:00−6nw388699 0.2 1004357
21:00−8nw399463 0.2 1005318
5 march, fri
fri500:00−10nw389337 0.0 1005231
03:00−10nw389350 0.0 1007267
06:00−9nnw389391 0.1 1008343
09:00−11nnw369387 0.1 1009231
12:00−7nnw238088 0.0 1011434
15:00−6wnw247247 0.0 1012740
18:00−8nw378987 0.0 1013339
21:00−11nw239353 0.0 101456
6 march, sat
sat600:00−11nw23930 0.0 101575
03:00−12wnw22940 0.0 101430
06:00−12wsw229410 0.0 101321
09:00−11sw269512 0.0 1010180
12:00−7ssw488884 0.0 1006409
15:00−5ssw7129392 0.4 1000913
18:00−4ssw71395100 1.5 993838
21:00−3sw41096100 3.1 988475